Wind_Speed
31 29 28 26 27 27 26 25 24 23 22 21 20 19 18 17 16 15 14 14 14 14 14 14 13 12 13 14 14 14 14 15 15 15 16 16 17 16 15 15 14 13 13 13
32 31 29 27 27 26 26 26 24 24 24 23 22 21 20 19 18 16 15 15 16 16 16 15 14 14 15 15 15 16 16 16 16 16 16 16 17 15 14 14 14 13 13 13
32 32 31 30 28 27 27 27 27 26 25 24 23 23 22 20 20 19 18 16 17 17 16 16 16 16 17 17 17 17 17 17 17 17 17 17 16 15 15 14 14 14 13 13
34 33 34 32 29 27 28 28 27 26 26 24 24 23 22 21 20 18 17 16 17 17 17 17 16 17 18 18 18 18 17 18 18 18 18 18 17 16 16 16 15 15 15 14
35 34 34 32 30 29 28 30 29 29 28 26 24 24 22 21 21 20 18 18 18 18 18 17 17 18 18 19 19 17 17 18 18 19 19 18 18 17 16 16 16 17 17 16
36 36 35 33 32 32 31 31 29 28 27 25 24 24 23 23 22 22 21 20 20 20 19 19 18 19 19 19 19 19 18 18 19 18 18 18 18 17 17 18 17 18 18 17
36 36 35 34 33 32 33 31 29 29 28 26 25 25 23 23 23 23 23 23 23 23 22 21 20 19 20 20 20 19 19 18 19 18 19 19 18 18 19 18 18 18 18 18
36 36 36 34 34 33 31 30 30 29 27 27 26 26 25 24 23 23 24 24 25 25 24 23 21 20 21 21 20 20 19 19 19 20 19 18 18 19 19 19 19 19 19 19
35 35 35 35 34 33 32 32 30 30 29 27 26 25 26 25 24 24 25 25 25 25 24 23 21 22 21 21 20 20 20 20 21 20 20 20 19 19 19 19 20 20 20 21
35 35 35 35 35 34 33 34 32 31 29 27 27 26 27 27 26 25 25 26 26 25 24 23 23 23 22 22 21 21 21 21 21 21 21 22 22 21 21 22 21 22 22 22
35 35 35 33 34 33 33 33 31 31 30 30 29 29 29 28 28 28 27 27 26 26 25 25 24 23 22 23 22 22 22 21 22 22 22 23 23 23 23 23 23 23 23 23
35 35 34 34 34 33 33 32 30 30 30 30 30 30 30 29 29 28 27 26 26 26 26 25 25 24 24 24 24 23 22 23 23 23 23 23 23 24 24 23 23 23 23 24
36 35 35 34 33 32 33 33 32 31 31 30 30 30 31 31 30 29 28 28 28 27 27 26 26 25 24 25 25 24 24 24 23 23 23 23 23 23 23 22 22 23 24 24
34 34 34 33 33 32 32 32 33 32 31 30 31 31 31 31 30 30 31 30 29 29 28 28 27 27 27 26 26 25 25 24 24 24 24 23 23 23 23 23 23 23 24 23
33 33 32 31 32 32 32 32 33 33 33 32 32 32 31 31 31 30 30 30 30 30 29 28 28 28 28 27 26 26 26 26 25 24 24 24 24 23 23 23 23 23 23 23
33 33 32 33 33 33 32 32 32 32 33 33 32 32 32 31 31 30 29 29 29 29 29 29 28 27 27 27 26 26 26 26 25 25 24 24 24 24 23 23 23 23 23 23
34 33 33 33 33 32 31 31 32 32 32 32 32 32 31 31 30 31 31 30 29 29 28 28 28 27 27 26 26 26 26 27 27 26 25 25 25 24 24 24 24 24 23 23
33 32 32 33 33 33 32 32 33 32 32 31 32 32 32 31 30 30 30 30 30 29 28 27 27 27 27 27 26 26 27 27 26 26 26 26 26 26 26 25 25 25 24 24
29 31 32 32 33 33 33 32 31 31 32 32 32 32 32 32 32 31 31 30 29 28 27 27 27 27 27 27 27 27 27 26 26 26 26 25 25 25 25 26 25 25 25 25
27 28 29 30 31 30 31 32 32 32 32 32 32 32 31 31 31 31 30 29 28 28 27 27 27 27 27 27 27 26 25 24 24 25 25 25 25 25 25 25 25 25 25 25
24 25 27 28 29 29 29 29 29 29 30 31 31 31 30 30 29 29 29 29 28 27 27 26 26 25 25 24 24 24 24 24 24 25 25 25 25 25 25 25 25 25 25 25
22 23 25 26 27 27 27 27 28 29 29 29 29 29 29 28 28 28 28 28 28 27 25 24 25 25 24 23 23 23 24 24 24 24 24 24 24 24 24 24 24 25 25 25
23 23 24 25 25 26 26 26 26 26 26 26 26 26 26 26 26 26 26 27 25 24 24 23 24 23 23 23 23 23 23 23 23 23 23 23 22 22 23 23 24 24 24 25
22 23 23 24 25 25 25 25 24 24 24 24 24 24 24 24 24 23 23 22 21 21 22 22 22 22 22 22 22 22 22 22 22 22 21 22 22 22 22 23 24 24 25 25
20 21 22 22 23 23 23 23 23 23 23 23 23 23 23 23 23 22 21 21 21 20 19 19 20 20 20 21 21 22 21 21 21 21 21 21 22 22 22 23 23 24 25 25
19 19 19 19 20 20 20 21 21 21 22 22 22 21 21 21 21 21 21 20 20 19 19 19 20 20 20 20 20 21 21 21 21 21 21 21 21 22 22 23 24 24 25 25
18 18 18 18 19 19 19 20 20 20 20 20 20 20 20 19 19 19 20 19 19 18 18 19 19 19 19 19 18 19 19 20 20 21 21 21 21 21 21 22 23 24 24 25
Wind_Direction
215 215 218 222 223 224 227 230 233 237 241 241 246 251 254 256 258 263 267 270 275 281 284 285 288 291 294 298 301 305 308 311 314 316 314 313 314 313 312 311 308 306 306 303
216 215 218 222 224 224 228 231 233 235 240 243 248 253 256 258 263 268 270 272 273 278 281 282 285 287 291 293 297 301 304 307 311 313 314 313 311 311 315 314 310 309 307 305
217 217 219 221 221 223 228 232 234 236 240 245 250 255 260 264 267 267 271 271 273 276 277 278 281 283 286 289 293 295 297 301 305 308 309 312 310 310 311 311 311 310 308 307
218 217 218 221 222 226 230 232 234 235 238 244 249 254 261 264 265 266 269 271 273 276 279 278 280 282 284 287 293 295 294 297 300 303 305 307 309 307 307 307 307 308 305 305
220 220 220 221 223 226 230 232 235 238 241 244 248 252 258 261 262 265 270 274 276 280 282 281 283 284 286 291 295 296 293 295 298 302 304 305 305 303 303 304 304 306 304 305
223 223 223 224 225 228 231 234 235 238 241 244 247 252 255 259 262 266 270 274 279 284 284 285 288 287 289 290 293 294 293 294 297 298 302 302 303 302 301 302 302 304 302 301
224 225 226 226 226 229 232 236 239 241 243 243 246 251 256 258 261 265 271 276 279 280 282 284 286 285 288 289 291 293 292 294 294 292 301 303 300 302 304 300 298 299 299 299
225 226 227 227 229 232 235 237 240 239 239 242 246 250 254 258 261 266 271 276 279 280 282 284 285 285 286 287 289 291 291 292 292 291 296 301 300 299 300 298 296 295 295 296
226 228 229 230 231 234 235 237 238 237 238 238 244 250 254 258 261 267 270 274 278 280 282 284 285 285 284 286 287 288 289 290 292 293 292 299 300 300 299 298 298 296 294 294
228 229 231 232 233 235 237 239 241 240 240 241 245 249 253 256 261 265 270 275 278 279 281 282 284 283 282 282 283 285 285 286 290 293 293 296 298 301 302 301 300 298 295 295
229 231 232 233 235 236 239 240 240 240 242 244 247 251 255 260 263 264 268 273 275 276 277 279 280 281 281 282 281 282 284 286 289 291 293 297 299 299 300 300 299 299 297 297
229 231 234 235 235 236 239 240 243 244 243 246 248 251 254 258 261 264 268 271 272 273 275 276 276 277 278 278 278 281 285 288 288 288 292 296 297 298 298 298 297 296 297 297
230 231 232 233 235 237 239 240 242 244 246 248 249 251 254 258 261 264 266 270 271 272 273 274 274 276 275 276 278 280 284 287 288 290 292 295 296 296 297 297 297 297 297 295
230 232 231 234 237 239 240 240 242 244 246 249 252 252 255 258 261 263 265 267 268 269 271 272 273 274 275 274 275 277 281 283 286 289 291 293 295 295 296 296 296 297 298 299
233 234 234 235 237 240 243 244 246 247 248 251 253 255 257 259 263 266 267 267 267 269 270 270 272 273 273 273 274 275 277 280 284 286 288 290 292 294 295 295 296 296 298 299
237 237 238 238 239 242 245 245 246 249 250 252 254 256 258 261 262 263 265 266 268 269 268 269 270 271 272 272 273 274 275 278 281 284 285 287 290 292 293 294 295 296 297 297
239 239 239 240 241 244 245 245 247 250 252 255 257 259 261 263 263 263 264 265 267 268 268 269 269 269 270 271 273 274 275 278 280 281 282 285 287 289 291 292 293 294 294 294
240 239 239 240 240 242 243 245 248 250 253 256 258 258 260 261 262 263 264 265 266 267 267 267 268 268 268 270 272 275 277 278 278 278 279 282 284 287 289 291 292 291 291 291
239 239 239 240 241 243 245 247 248 250 253 255 257 258 259 260 261 262 264 265 266 264 264 265 266 266 267 269 273 275 276 276 277 277 278 280 284 287 288 290 290 291 291 290
239 240 241 241 241 243 247 247 248 250 251 253 255 257 259 260 261 262 263 264 265 264 263 264 264 264 267 269 271 274 275 275 275 275 277 280 283 285 287 288 289 290 290 290
242 241 241 242 242 245 247 247 247 248 250 252 254 256 257 259 259 260 262 264 265 265 263 262 263 264 267 270 272 273 273 275 276 277 279 280 282 283 285 287 288 289 291 292
241 241 241 241 242 243 242 244 247 249 250 252 253 254 255 257 259 261 263 264 265 265 261 261 263 264 266 269 271 271 273 276 278 279 280 281 282 284 285 286 288 289 292 294
241 241 241 242 243 243 243 245 247 248 249 250 250 251 253 255 258 261 262 264 262 258 258 260 262 263 265 267 269 271 274 276 278 279 281 281 283 285 285 286 287 288 291 295
242 242 243 243 242 242 243 244 245 247 248 249 249 249 250 252 256 259 260 258 256 257 257 258 261 262 262 265 268 271 274 276 277 279 280 281 282 284 286 286 287 289 292 295
242 243 243 243 242 242 244 244 243 246 249 250 248 249 252 253 254 257 256 256 259 260 259 260 261 263 262 263 267 270 273 275 276 279 281 283 284 285 287 288 289 291 293 295
243 243 243 243 243 244 244 243 243 245 246 246 247 249 250 249 250 251 252 253 257 260 259 261 265 266 265 265 267 270 271 274 277 280 283 284 285 286 288 289 291 292 294 296
244 243 243 244 244 243 242 240 241 241 242 243 245 245 244 244 245 247 249 251 255 258 258 260 262 263 264 266 268 270 273 276 278 280 282 284 285 287 289 290 292 294 297 298
Height
5866 5869 5872 5875 5878 5881 5884 5886 5889 5892 5894 5896 5897 5899 5900 5901 5901 5902 5903 5904 5904 5904 5904 5904 5904 5903 5902 5902 5900 5899 5898 5896 5894 5892 5889 5887 5885 5882 5880 5878 5877 5875 5873 5872
5861 5865 5868 5871 5874 5877 5880 5882 5884 5887 5889 5891 5892 5894 5895 5896 5897 5897 5898 5899 5899 5900 5900 5900 5900 5899 5898 5897 5896 5895 5894 5892 5890 5888 5886 5883 5881 5879 5877 5875 5873 5872 5870 5869
5855 5859 5863 5866 5869 5872 5875 5877 5879 5881 5884 5886 5888 5889 5890 5892 5893 5893 5894 5894 5895 5895 5896 5895 5895 5895 5894 5893 5892 5890 5889 5888 5887 5885 5882 5880 5878 5876 5875 5872 5870 5868 5867 5865
5849 5854 5858 5863 5865 5867 5869 5871 5874 5876 5879 5881 5883 5885 5886 5887 5888 5889 5889 5890 5890 5891 5890 5890 5890 5889 5889 5888 5887 5885 5884 5883 5882 5880 5878 5876 5874 5873 5871 5869 5867 5865 5863 5862
5843 5847 5852 5857 5859 5862 5864 5866 5868 5871 5874 5876 5878 5880 5881 5883 5883 5884 5885 5886 5886 5886 5885 5884 5884 5884 5884 5883 5882 5880 5879 5878 5877 5876 5874 5872 5870 5869 5867 5865 5863 5861 5859 5858
5837 5841 5845 5851 5854 5856 5859 5860 5863 5866 5869 5872 5874 5875 5877 5878 5879 5880 5880 5881 5881 5881 5880 5879 5879 5878 5878 5878 5877 5876 5875 5874 5873 5871 5869 5867 5866 5864 5863 5861 5859 5857 5855 5853
5830 5834 5839 5844 5847 5851 5854 5856 5858 5860 5864 5866 5868 5870 5872 5873 5874 5874 5874 5875 5876 5876 5875 5874 5872 5872 5872 5872 5872 5871 5870 5869 5868 5867 5864 5862 5861 5860 5858 5856 5854 5852 5850 5848
5823 5828 5834 5838 5841 5844 5847 5850 5851 5854 5857 5860 5862 5865 5866 5867 5868 5869 5869 5869 5869 5869 5869 5867 5866 5867 5866 5866 5866 5865 5864 5863 5862 5861 5859 5857 5856 5854 5852 5850 5849 5847 5845 5843
5817 5823 5826 5830 5833 5837 5840 5843 5845 5848 5850 5853 5856 5858 5860 5861 5862 5863 5863 5863 5863 5863 5863 5862 5862 5862 5861 5861 5860 5859 5858 5857 5856 5855 5854 5852 5850 5849 5846 5845 5843 5841 5839 5837
5810 5814 5818 5822 5826 5830 5834 5837 5839 5841 5844 5847 5850 5852 5854 5855 5857 5857 5857 5857 5856 5856 5856 5856 5856 5856 5855 5855 5854 5853 5852 5851 5850 5849 5848 5846 5845 5843 5841 5839 5836 5835 5833 5831
5803 5807 5811 5815 5818 5822 5826 5829 5832 5834 5838 5841 5843 5845 5847 5848 5849 5850 5851 5850 5850 5849 5849 5849 5849 5849 5849 5848 5848 5847 5846 5845 5844 5843 5842 5841 5839 5837 5835 5833 5831 5829 5827 5825
5797 5801 5805 5809 5811 5815 5819 5822 5825 5828 5831 5833 5834 5836 5838 5840 5841 5842 5843 5843 5843 5843 5843 5843 5842 5842 5842 5842 5842 5841 5840 5839 5838 5837 5836 5834 5833 5831 5829 5827 5824 5822 5820 5818
5790 5794 5797 5801 5804 5808 5812 5815 5818 5821 5823 5825 5826 5828 5830 5832 5834 5834 5835 5835 5836 5836 5836 5836 5836 5835 5835 5835 5834 5834 5833 5832 5831 5830 5829 5828 5826 5824 5822 5820 5818 5816 5814 5811
5783 5787 5790 5794 5797 5800 5804 5807 5810 5812 5815 5817 5819 5820 5822 5824 5825 5826 5827 5828 5828 5829 5829 5829 5829 5829 5828 5828 5827 5827 5826 5825 5824 5823 5822 5821 5819 5817 5815 5813 5812 5809 5807 5804
5775 5779 5783 5787 5790 5793 5796 5799 5801 5804 5806 5808 5810 5812 5814 5815 5817 5818 5818 5819 5820 5821 5821 5822 5822 5822 5821 5820 5820 5819 5819 5818 5817 5816 5815 5814 5812 5810 5808 5806 5805 5803 5801 5798
5767 5771 5774 5779 5782 5785 5788 5790 5793 5795 5797 5799 5801 5803 5805 5807 5808 5809 5810 5811 5812 5812 5813 5813 5813 5813 5813 5812 5812 5811 5811 5810 5809 5808 5808 5807 5805 5803 5802 5800 5798 5796 5794 5792
5758 5762 5766 5770 5774 5777 5779 5782 5784 5786 5788 5790 5793 5794 5796 5798 5799 5800 5801 5802 5803 5803 5804 5804 5805 5804 5804 5804 5804 5803 5802 5802 5801 5800 5800 5799 5798 5796 5795 5793 5791 5789 5787 5785
5750 5754 5758 5761 5764 5767 5770 5773 5774 5777 5779 5781 5783 5785 5787 5788 5790 5791 5792 5793 5794 5794 5795 5795 5796 5796 5796 5796 5796 5795 5795 5794 5793 5792 5791 5791 5790 5788 5787 5785 5783 5782 5780 5778
5742 5746 5749 5752 5756 5759 5762 5764 5766 5768 5770 5772 5774 5776 5778 5779 5781 5782 5783 5784 5785 5786 5786 5786 5787 5787 5787 5787 5787 5787 5786 5786 5785 5784 5784 5783 5781 5780 5779 5777 5775 5774 5772 5770
5735 5738 5741 5744 5747 5750 5752 5755 5757 5759 5761 5763 5766 5767 5769 5770 5772 5773 5774 5775 5776 5777 5778 5778 5778 5778 5779 5779 5779 5778 5778 5777 5776 5776 5775 5774 5773 5772 5771 5769 5768 5766 5764 5762
5728 5730 5733 5736 5739 5741 5743 5745 5748 5750 5752 5755 5757 5758 5760 5762 5763 5764 5765 5766 5767 5768 5769 5769 5769 5769 5770 5770 5770 5770 5770 5769 5769 5768 5767 5766 5765 5764 5763 5761 5760 5758 5757 5755
5722 5724 5726 5728 5731 5733 5735 5737 5739 5742 5744 5746 5748 5750 5751 5753 5754 5755 5757 5758 5759 5759 5760 5761 5761 5761 5762 5762 5762 5762 5762 5762 5761 5759 5758 5757 5756 5755 5754 5753 5752 5751 5749 5747
5715 5716 5718 5721 5723 5725 5727 5729 5732 5734 5736 5738 5740 5742 5744 5745 5746 5748 5749 5750 5750 5751 5752 5753 5753 5753 5754 5754 5755 5755 5755 5754 5753 5752 5750 5749 5748 5747 5746 5745 5744 5743 5742 5740
5708 5709 5711 5713 5715 5717 5720 5722 5724 5726 5728 5730 5733 5735 5736 5738 5739 5740 5741 5742 5742 5743 5744 5745 5745 5745 5746 5746 5747 5747 5747 5747 5746 5745 5744 5742 5741 5740 5739 5738 5737 5736 5734 5732
5701 5703 5704 5707 5709 5711 5713 5715 5716 5718 5721 5723 5725 5727 5729 5730 5732 5733 5734 5735 5736 5736 5737 5738 5738 5738 5739 5739 5739 5740 5740 5739 5739 5738 5737 5736 5735 5733 5732 5731 5730 5728 5726 5724
5696 5697 5699 5701 5703 5705 5706 5708 5710 5712 5714 5716 5718 5720 5722 5723 5725 5726 5728 5729 5730 5730 5731 5731 5732 5732 5732 5732 5732 5732 5732 5732 5731 5731 5730 5729 5728 5727 5726 5724 5723 5721 5719 5716
5691 5692 5694 5695 5697 5699 5700 5702 5704 5706 5708 5710 5712 5714 5715 5717 5718 5720 5721 5723 5724 5724 5725 5725 5726 5726 5726 5726 5726 5726 5725 5725 5724 5724 5723 5722 5721 5720 5719 5717 5715 5713 5711 5709